Regional Weather Roundup
Issued by NWS

Home | Current Version | Previous Version | Graphics & Text | Print | Product List | Glossary On
Versions: 1 2 3 4 5 6 7 8 9 10 11 12 13 14 15 16 17 18 19 20 21 22 23 24 25 26 27 28 29 30 31 32 33 34 35 36 37 38 39 40 41 42 43 44 45 46 47 48 49 50
161
ASUS45 KABQ 231901
RWRNM
NEW MEXICO REGIONAL WEATHER ROUNDUP
NATIONAL WEATHER SERVICE ALBUQUERQUE NM
100 PM MDT SUN APR 23 2017

NOTE: "FAIR" MEANS FEW OR NO CLOUDS BELOW 12,000 FEET AGL WITH NO
       SIGNIFICANT WEATHER OR OBSTRUCTIONS TO VISION.

      THIS PRODUCT IS RELEASED AS TWO VERSIONS.  ONE VERSION NEAR
      THE TOP OF THE HOUR CONTAINING PRELIMINARY DATA FROM ALBUQUERQUE
      AND OTHER STATIONS.  A FINAL VERSION WITH ADDITIONAL DATA IS
      ISSUED ABOUT 10 MINUTES AFTER THE HOUR.

NMZ501-503-504-510>518-232000-
NORTHWEST PLATEAU/NORTHCENTRAL MOUNTAINS

CITY           SKY/WX    TMP DP  RH WIND       PRES   REMARKS
FARMINGTON     FAIR      68  27  21 VRB6G22   30.01F
LOS ALAMOS     FAIR      59  30  33 S20G25    30.15F
SANTA FE       FAIR      65  33  30 SW13      30.14F
TAOS             N/A     59  32  36 SW8       30.15F
ANGEL FIRE     FAIR      57  31  37 W10       30.18F

$$
NMZ402-403-502-505>509-232000-
WESTCENTRAL MOUNTAINS/SOUTHWEST MOUNTAINS

CITY           SKY/WX    TMP DP  RH WIND       PRES   REMARKS
GALLUP         FAIR      73  19  13 SW17G33   30.07F
GRANTS         FAIR      68  30  24 SE18G24   30.11F
SILVER CITY    FAIR      66  34  30 SE13G20   30.17F

$$
NMZ407-409-411-412-232000-
SOUTHERN DESERTS

CITY           SKY/WX    TMP DP  RH WIND       PRES   REMARKS
DEMING         FAIR      72  34  24 MISG      30.11F
LAS CRUCES     FAIR      72  30  21 S9        30.15F
HOLLOMAN AFB   FAIR      72  32  23 S16G22    30.16F
ALAMOGORDO     FAIR      72  36  26 S16G25    30.14F
T OR C         FAIR      69  31  24 S14G23    30.12F

$$
NMZ519>523-232000-
CENTRAL VALLEYS/CENTRAL HIGHLANDS

CITY           SKY/WX    TMP DP  RH WIND       PRES   REMARKS
ALBUQUERQUE    FAIR      65  33  30 SW8       30.12F
DOUBLE EAGLE   MOSUNNY   64  34  32 S18       30.14F
MORIARTY ARPT  FAIR      71  34  25 S13       30.13F
CLINES CORNERS FAIR      63  33  32 SW18G24   30.17F
BELEN          FAIR      69  32  25 S17G25    30.10F
SOCORRO        FAIR      71  32  24 S15G23    30.10F

$$
NMZ524>526-539-540-232000-
SOUTHCENTRAL MOUNTAINS

CITY           SKY/WX    TMP DP  RH WIND       PRES   REMARKS
RUIDOSO        NOT AVBL

$$
NMZ527>531-232000-
NORTHEAST HIGHLANDS/NORTHEAST PLAINS

CITY           SKY/WX    TMP DP  RH WIND       PRES   REMARKS
LAS VEGAS      FAIR      67  30  25 SW28G38   30.09F
RATON          FAIR      66  32  28 S13G24    30.04F
CLAYTON        FAIR      64  34  32 SW28G36   30.05F

$$
NMZ532>537-232000-
EASTCENTRAL PLAINS

CITY           SKY/WX    TMP DP  RH WIND       PRES   REMARKS
SANTA ROSA     FAIR      68  33  28 S16G28    30.09F
TUCUMCARI      FAIR      71  35  26 SW18G31   30.06F
CANNON AFB     FAIR      66  33  30 S17G24    30.13F
CLOVIS AIRPORT FAIR      64  36  34 SW16G26   30.14F

$$
NMZ028-029-538-232000-
SOUTHEAST PLAINS

CITY           SKY/WX    TMP DP  RH WIND       PRES   REMARKS
ROSWELL        FAIR      68  34  28 S20G26    30.14F
ARTESIA        FAIR      68  36  30 SE18G28   30.14F
CARLSBAD       FAIR      69  35  28 SE18G26   30.14F
HOBBS          SUNNY     64  32  29 S9        30.18F


$$




USA.gov is the U.S. government's official web portal to all federal, state and local government web resources and services.